BEIDOU-2 G8 (C01)

Last updated on Mon Oct 20 2025 00:03:25 GMT+0000 (Coordinated Universal Time)

1 44231U 19027A 25292.29628176 -.00000248 00000+0 00000+0 0 9997 2 44231 1.5208 74.4902 0007237 256.4026 308.3196 1.00269438 23662
UTC large
Height (km)
Speed (km/s)
/
Latitude / Longitude
Inclination (degrees)
Orbital Period (minutes)
Azimuth
Elevation
Range (km)
Doppler Factor

Next 0 passes for location: London (51.5072 / 0.1276)

Sorry there are no passes over London.